Regional Weather Roundup
Issued by NWS

Home | Current Version | Previous Version | Text Only | Print | Product List | Glossary On
Versions: 1 2 3 4 5 6 7 8 9 10 11 12 13 14 15 16 17 18 19 20 21 22 23 24 25 26 27 28 29 30 31 32 33 34 35 36 37 38 39 40 41 42 43 44 45 46 47 48 49 50
057
ASUS43 KMPX 240410
RWRMN
WEATHER ROUNDUP FOR MINNESOTA
NATIONAL WEATHER SERVICE TWIN CITIES/CHANHASSEN MN
1000 PM CST FRI FEB 23 2018


NOTE: "FAIR" INDICATES FEW OR NO CLOUDS BELOW 12,000 FEET WITH NO
SIGNIFICANT WEATHER AND/OR OBSTRUCTIONS TO VISIBILITY. N/A MEANS
CURRENT SKY AND/OR WEATHER CONDITIONS ARE NOT AVAILABLE.

MNZ060>063-068>070-240500-
   Twin Cities Metro

CITY           SKY/WX    TMP DP  RH WIND       PRES   REMARKS
TWIN CITIES    FAIR      18  15  88 W7        30.30S WCI   9
ST PAUL        FAIR      20  17  88 W5        30.31S WCI  13
CRYSTAL        FAIR      18  14  84 W6        30.29S WCI  10
BLAINE         FAIR      21  18  86 W3        30.29S
LAKEVILLE        N/A     12  12 100 W5        30.29F WCI   4
EDEN PRAIRIE   FAIR      17  13  84 W5        30.29S WCI  10
SOUTH ST PAUL  FAIR      19  16  87 W3        30.30S
LAKE ELMO      FAIR      18  14  86 SW3       30.30S FOG
$$
MNZ001>005-007-008-013>017-022>024-027-028-240500-
   Northwest Minnesota

CITY           SKY/WX    TMP DP  RH WIND       PRES   REMARKS
BEMIDJI        FAIR       7   2  80 SW7       30.20F WCI  -5
HALLOCK        FAIR       1  -2  85 S7        30.18F WCI -11
ROSEAU         FAIR       5   0  78 SW6       30.18S WCI  -6
WARROAD        FAIR       7   1  78 S6        30.17S WCI  -3
THIEF RVR FALL FAIR       0  -3  87 S8        30.21F WCI -14
CROOKSTON      FAIR       0  -4  85 SW9       30.25S WCI -16
FOSSTON        FAIR      -2  -6  84 S8        30.23F WCI -17
DETROIT LAKES  FAIR       5   3  92 SW5       30.26R WCI  -4
MOORHEAD       FAIR       3   0  85 S8        30.29S WCI -10
PARK RAPIDS    FAIR       0  -5  79 W7        30.22S WCI -13
MAHNOMEN       FAIR       0  -3  87 S10       30.24S WCI -16
$$
MNZ006-009>011-018-025>026-240500-
   North Central Minnesota

CITY           SKY/WX    TMP DP  RH WIND       PRES   REMARKS
BAUDETTE       FAIR       7   2  80 SW5       30.16S WCI  -2
FLAG ISLAND    FAIR       7   0  72 SW3       30.15R
INTL FALLS     FAIR      11   4  73 SW7       30.17R WCI   0
WASKISH        FAIR       9   3  78 SW8       30.20S WCI  -4
LONGVILLE      FAIR      12   5  73 W3        30.23R
GRAND RAPIDS   FAIR      12   6  77 NW5       30.22R WCI   4
CRANE LAKE     FAIR      16  10  79 SW5       30.19S WCI   9
ORR            FAIR      12   3  67 W5        30.15S WCI   4
COOK             N/A     12   7  79 SW3       30.18S
WALKER         FAIR      10   3  72 W8        30.22R WCI  -1
$$
MNZ012-019>021-037-240500-
   Northeast Minnesota

CITY           SKY/WX    TMP DP  RH WIND       PRES   REMARKS
DULUTH         FAIR      23  19  85 W7        30.17S WCI  15
ELY            FAIR      19  10  68 W14       30.16R WCI   6
HIBBING        FAIR      16  10  77 W5        30.18R WCI   9
EVELETH        FAIR      19  12  73 W6        30.18S WCI  11
DULUTH HARBOR  MOCLDY    30  21  69 SW10      30.23S WCI  21
TWO HARBORS    FAIR      27  19  74 W6        30.17S WCI  20
SILVER BAY     FAIR      27  21  80 CALM      30.16S
GRAND MARAIS     N/A     27  20  75 W3        30.18S
G MARAIS ARPRT FAIR      19  14  79 CALM      30.12R
$$
MNZ029>031-032-039>041-046>048-054>057-064-240500-
   West Central Minnesota

CITY           SKY/WX    TMP DP  RH WIND       PRES   REMARKS
FERGUS FALLS   FAIR       3   0  85 CALM      30.30S
WHEATON        CLOUDY     1  -2  85 CALM      30.32S
MORRIS           N/A      3   1  92 NW3       30.28F FOG
ALEXANDRIA     FAIR       2   0  91 W5        30.27S WCI  -8
ELBOW LAKE     FAIR      -3  -5  88 E3        30.29S
WADENA         FAIR       3   1  92 W5        30.25S WCI  -6
GLENWOOD       FAIR       3   1  92 CALM      30.28S
APPLETON       CLOUDY     1  -2  85 CALM      30.32S
BENSON         FOG       -2  -6  84 CALM      30.31F VSB 1/4
ORTONVILLE     CLOUDY     3   0  85 CALM      30.29F
MADISON        FOG        3   1  92 CALM      30.31F VSB<1/4
WILLMAR        FAIR       1  -2  85 CALM      30.32S
$$
MNZ033>034-036-042>043-049>051-058-059-240500-
   Central Minnesota

CITY           SKY/WX    TMP DP  RH WIND       PRES   REMARKS
ST CLOUD       FAIR      11   8  88 NW6       30.29R WCI   1
SAUK CENTRE    FAIR       5   2  89 CALM      30.29S
PAYNESVILLE    FAIR       6   5  94 NW5       30.29S WCI  -3
AITKIN         FAIR      14   9  79 SW5       30.23R WCI   6
PINE RIVER     FAIR       9   7  92 CALM      30.27R
BRAINERD       FAIR      10   4  76 SW7       30.25S WCI  -1
STAPLES        FAIR       3   0  85 W5        30.26S WCI  -6
LONG PRAIRIE   FAIR       3   1  92 S5        30.27S WCI  -6
LITTLE FALLS   FAIR       9   3  78 CALM      30.29S
LITCHFIELD     FAIR      12  10  92 CALM      30.31R
BUFFALO        FAIR      15  12  88 SW3       30.31S
MAPLE LAKE     FAIR      14  12  94 CALM      30.31R
HUTCHINSON     FAIR      10   8  90 W6        30.31S WCI   0
$$
MNZ037-044-045-052-053-240500-
   East Central Minnesota

CITY           SKY/WX    TMP DP  RH WIND       PRES   REMARKS
PRINCETON      FAIR      16  10  79 W3        30.28S
CAMBRIDGE      FAIR      19  12  73 W5        30.29R WCI  13
RUSH CITY      FAIR      19  15  84 W5        30.27S WCI  13
MOOSE LAKE     FAIR      25  18  74 W5        30.21S WCI  19
HINCKLEY       FAIR      19  18  93 W3        30.25S
CLOQUET        FAIR      27  18  69 W9        30.19S WCI  17
MCGREGOR       FAIR      21  12  68 SW3       30.22S
$$
MNZ071>073-080-081-089-090-097-098-240500-
   Southwest Minnesota

CITY           SKY/WX    TMP DP  RH WIND       PRES   REMARKS
MONTEVIDEO     CLOUDY     9   5  85 NW5       30.31F WCI   0
GRANITE FALLS  FOG        0  -3  85 CALM      30.33S VSB 1/4
CANBY          CLOUDY    12  10  92 SW6       30.30F WCI   3
MARSHALL       FOG        5   1  83 NW3       30.30F VSB 1/4
REDWOOD FALLS  CLOUDY    12  11  95 NW5       30.30F WCI   4
OLIVIA         FOG       10   9  92 W3        30.31S VSB 1
PIPESTONE      FOG       16  12  86 N3        30.24F VSB 1/4
WORTHINGTON    SNOW      16  12  86 NW13      30.24F VSB 1/4 WCI   2
JACKSON        CLOUDY    19  18  93 NW10      30.25F FOG     WCI   8
TRACY          CLOUDY    16  15  96 W8        30.27F WCI   6
SLAYTON        FOG       16  15  95 NW8       30.26F VSB 1/2 WCI   5
$$
MNZ065>067-074>077-082>085-091>093-240500-
   South Central Minnesota

CITY           SKY/WX    TMP DP  RH WIND       PRES   REMARKS
NEW ULM        FOG       10   7  85 W3        30.29F VSB 3/4
ST JAMES       FOG        7   3  85 CALM      30.29F VSB<1/4
FAIRMONT       PTCLDY     9   5  85 N5        30.28F FOG     WCI   0
GLENCOE        FAIR      12  11  95 W5        30.29F FOG     WCI   5
FARIBAULT      FAIR      16  16 100 CALM      30.29S
OWATONNA       SNOW       7   3  85 CALM      30.28F VSB<1/4
WASECA         FOG        9   3  78 CALM      30.29F VSB<1/4
ALBERT LEA     FAIR      16  12  86 CALM      30.27F FOG
$$
MNZ078>079-086>088-094>096-240500-
   Southeast Minnesota

CITY           SKY/WX    TMP DP  RH WIND       PRES   REMARKS
ROCHESTER      FAIR      13  12  96 NW10      30.26F FOG     WCI   0
RED WING       FAIR      19  16  86 NW7       30.30S WCI  10
STANTON        FAIR      16  13  88 CALM      30.29F
DODGE CENTER   FAIR      18  16  93 NW7       30.26F FOG     WCI   8
WINONA         FAIR      18  16  93 CALM      30.30S FOG
AUSTIN         FAIR      16  12  86 CALM      30.27S
PRESTON        FAIR      17  14  90 N5        30.27S FOG     WCI   9
$$
ABBREVIATIONS USED IN REMARKS
   TC - TEMPERATURES IN CELSIUS
  WCI - WIND CHILL INDEX
   HX - HEAT INDEX
  VSB - VISIBILITY
$$




USA.gov is the U.S. government's official web portal to all federal, state and local government web resources and services.